Stuart, FL

6:27 AM EDT on May 27, 2018 (GMT -0400)
Witham

Weather History for KSUA - September, 2012

Change the Weather History Date:

Saturday, September 29, 2012

  Actual Average Record
Temperature  
Mean Temperature 81 °F -  
Max Temperature 87 °F 87 °F 97 °F (1974)
Min Temperature 75 °F 73 °F 33 °F (2010)
Cooling Degree Days 16    
Growing Degree Days 31 (Base 50)    
Moisture  
Dew Point 73 °F    
Average Humidity 82    
Maximum Humidity 94    
Minimum Humidity 58    
Precipitation  
Precipitation 0.03 in - - ()
Sea Level Pressure  
Sea Level Pressure 29.94 in    
Wind  
Wind Speed 2 mph (ESE)    
Max Wind Speed 12 mph    
Max Gust Speed 18 mph    
Visibility 9 miles    
Events Rain , Thunderstorm    
Averages and records for this station are not official NWS values.
T = Trace of Precipitation, MM = Missing Value Source: NWS Daily Summary

Daily Weather History Graph

Daily Weather History Graph

Search for Another Location

Airport or City:

Astronomy

Sep. 29, 2012 Rise Set
Actual Time 7:12 AM EDT 7:08 PM EDT
Civil Twilight 6:49 AM EDT 7:32 PM EDT
Nautical Twilight 6:22 AM EDT 7:58 PM EDT
Astronomical Twilight 5:55 AM EDT 8:26 PM EDT
Moon 6:44 PM EDT (9/29) 6:40 AM EDT (9/29)
Length of Visible Light 12h 42m
Length of Day
11h 55m
Full, 100% of the Moon is Illuminated
Sep 29
Full
Sep 29
Full
Oct 8
Last Quarter
Oct 15
New
Oct 21
First Quarter

Hourly Weather History & Observations

Time (EDT) Temp. Heat Index Dew Point Humidity Pressure Visibility Wind Dir Wind Speed Gust Speed Precip Events Conditions
12:15 AM 78.8 °F - 71.6 °F 78% 29.98 in 10.0 mi East 5.8 mph - N/A   Clear
12:35 AM 78.8 °F - 73.4 °F 83% 29.98 in 10.0 mi Calm Calm - N/A   Clear
12:55 AM 78.8 °F - 71.6 °F 78% 29.98 in 10.0 mi Calm Calm - N/A   Clear
1:15 AM 77.0 °F - 71.6 °F 83% 29.98 in 10.0 mi Calm Calm - N/A   Clear
1:35 AM 77.0 °F - 71.6 °F 83% 29.97 in 10.0 mi Calm Calm - N/A   Clear
1:55 AM 77.0 °F - 73.4 °F 89% 29.97 in 10.0 mi Calm Calm - N/A   Clear
2:15 AM 77.0 °F - 73.4 °F 89% 29.97 in 10.0 mi Calm Calm - N/A   Scattered Clouds
2:35 AM 77.0 °F - 73.4 °F 89% 29.97 in 10.0 mi Calm Calm - N/A   Scattered Clouds
2:55 AM 77.0 °F - 73.4 °F 89% 29.96 in 10.0 mi NW 3.5 mph - N/A   Clear
3:15 AM 77.0 °F - 73.4 °F 89% 29.96 in 10.0 mi Calm Calm - N/A   Clear
3:35 AM 77.0 °F - 73.4 °F 89% 29.95 in 10.0 mi Calm Calm - N/A   Mostly Cloudy
3:55 AM 77.0 °F - 73.4 °F 89% 29.95 in 4.0 mi Calm Calm - 0.03 in Rain Heavy Rain
4:15 AM 77.0 °F - 73.4 °F 89% 29.95 in 10.0 mi Calm Calm - N/A   Scattered Clouds
4:35 AM 77.0 °F - 73.4 °F 89% 29.94 in 10.0 mi WNW 3.5 mph - N/A   Clear
4:55 AM 77.0 °F - 73.4 °F 89% 29.95 in 10.0 mi Calm Calm - N/A   Clear
5:15 AM 77.0 °F - 73.4 °F 89% 29.95 in 10.0 mi Calm Calm - N/A   Clear
5:35 AM 75.2 °F - 73.4 °F 94% 29.95 in 10.0 mi NW 3.5 mph - N/A Thunderstorm Clear
5:55 AM 77.0 °F - 73.4 °F 89% 29.96 in 10.0 mi Calm Calm - N/A   Scattered Clouds
6:15 AM 77.0 °F - 73.4 °F 89% 29.96 in 10.0 mi Calm Calm - N/A Thunderstorm Mostly Cloudy
6:47 AM 77.0 °F - 75.2 °F 94% 29.97 in 7.0 mi Calm Calm - N/A   Scattered Clouds
7:47 AM 77.0 °F - 75.2 °F 94% 29.98 in 10.0 mi Calm Calm - N/A   Mostly Cloudy
8:47 AM 80.6 °F 86.2 °F 75.2 °F 84% 29.99 in 10.0 mi SSE 4.6 mph - N/A   Scattered Clouds
9:47 AM 84.2 °F 90.9 °F 73.4 °F 70% 29.99 in 10.0 mi Calm Calm - N/A   Scattered Clouds
10:47 AM 84.2 °F 90.9 °F 73.4 °F 70% 29.99 in 7.0 mi SSE 6.9 mph - N/A   Mostly Cloudy
11:47 AM 86.0 °F 93.4 °F 73.4 °F 66% 29.98 in 7.0 mi East 11.5 mph 16.1 mph N/A   Mostly Cloudy
12:47 PM 87.8 °F 93.8 °F 71.6 °F 58% 29.96 in 7.0 mi East 11.5 mph 18.4 mph N/A   Mostly Cloudy
1:47 PM 87.8 °F 93.8 °F 71.6 °F 58% 29.93 in 7.0 mi ESE 11.5 mph - N/A   Mostly Cloudy
2:47 PM 87.8 °F 93.8 °F 71.6 °F 58% 29.90 in 7.0 mi ESE 11.5 mph - N/A   Scattered Clouds
3:47 PM 84.2 °F 89.6 °F 71.6 °F 66% 29.89 in 7.0 mi ESE 11.5 mph - N/A Thunderstorm Mostly Cloudy
4:47 PM 84.2 °F 89.6 °F 71.6 °F 66% 29.90 in 7.0 mi ESE 11.5 mph - N/A Thunderstorm Thunderstorm
5:47 PM 78.8 °F - 71.6 °F 78% 29.89 in 7.0 mi ESE 11.5 mph - N/A Thunderstorm Thunderstorm
6:47 PM 80.6 °F 84.6 °F 71.6 °F 74% 29.88 in 7.0 mi SSE 6.9 mph - N/A Thunderstorm Scattered Clouds
8:15 PM 78.8 °F - 73.4 °F 83% 29.90 in 10.0 mi Calm Calm - N/A   Mostly Cloudy
8:35 PM 78.8 °F - 73.4 °F 83% 29.90 in 10.0 mi Calm Calm - N/A   Scattered Clouds
8:55 PM 78.8 °F - 73.4 °F 83% 29.90 in 10.0 mi East 3.5 mph - N/A   Clear
9:15 PM 78.8 °F - 73.4 °F 83% 29.90 in 10.0 mi Calm Calm - N/A   Clear
9:35 PM 78.8 °F - 73.4 °F 83% 29.92 in 10.0 mi Calm Calm - N/A   Clear
9:55 PM 78.8 °F - 73.4 °F 83% 29.92 in 10.0 mi Calm Calm - N/A   Clear
10:15 PM 78.8 °F - 73.4 °F 83% 29.93 in 10.0 mi Calm Calm - N/A   Clear
10:35 PM 78.8 °F - 73.4 °F 83% 29.93 in 10.0 mi Calm Calm - N/A   Clear
10:55 PM 78.8 °F - 73.4 °F 83% 29.93 in 10.0 mi Calm Calm - N/A   Scattered Clouds
11:15 PM 78.8 °F - 73.4 °F 83% 29.93 in 10.0 mi Calm Calm - N/A   Scattered Clouds
11:35 PM 77.0 °F - 73.4 °F 89% 29.93 in 10.0 mi Calm Calm - N/A   Clear
11:55 PM 77.0 °F - 73.4 °F 89% 29.92 in 10.0 mi Calm Calm - N/A   Clear